Regional Weather Roundup
Issued by NWS Boston, MA

Current Version | Previous Version | Text Only | Print | Product List | Glossary Off
Versions: 1 2 3 4 5 6 7 8 9 10 11 12 13 14 15 16 17 18 19 20 21 22 23 24 25 26 27
000 ASUS41 KBOX 250710 RWRBOX REGIONAL WEATHER ROUNDUP NATIONAL WEATHER SERVICE TAUNTON MA 300 AM EDT TUE JUL 25 2017 NOTE: "FAIR" INDICATES FEW OR NO CLOUDS BELOW 12,000 FEET WITH NO SIGNIFICANT WEATHER AND/OR OBSTRUCTIONS TO VISIBILITY. MAZALL-250800- EASTERN MASSACHUSETTS CITY SKY/WX TMP DP RH WIND PRES REMARKS BOSTON CLOUDY 58 57 97 N10 29.98F BEVERLY CLOUDY 57 56 96 NE7 29.98F FOG LAWRENCE CLOUDY 58 55 90 N5 30.02S BEDFORD CLOUDY 56 54 93 N8 29.98F FOG BLUE HILL N/A 55 54 96 NE10G21 29.97F NORWOOD CLOUDY 59 58 96 NE5 29.98S MARSHFIELD LGT RAIN 59 59 100 N8G16 29.97S PLYMOUTH CLOUDY 58 56 93 N14 29.96F FOG TAUNTON CLOUDY 58 56 93 N6 29.96F FOG NEW BEDFORD CLOUDY 59 56 89 NE7 29.95S $$ MAZALL-250800- CAPE COD AND THE ISLANDS CITY SKY/WX TMP DP RH WIND PRES REMARKS FALMOUTH N/A N/A N/A N/A MISG N/A HYANNIS CLOUDY 59 58 96 N12G23 29.93R CHATHAM CLOUDY 60 60 100 N10G18 29.93S PROVINCETOWN CLOUDY 57 56 96 N8 29.97R FOG NANTUCKET CLOUDY 62 60 93 N21G26 29.92R MARTHAS VNYRD CLOUDY 61 57 87 N18G24 29.94R $$ MAZALL-250800- CENTRAL AND WESTERN MASSACHUSETTS CITY SKY/WX TMP DP RH WIND PRES REMARKS WORCESTER CLOUDY 52 51 97 NE12 30.00R FOG FITCHBURG CLOUDY 57 54 89 VRB6 30.02S ORANGE CLOUDY 55 53 93 N5 30.01S SPRINGFIELD CLOUDY 57 53 87 E5 30.00R WESTFIELD CLOUDY 57 56 96 N6 30.01R NORTH ADAMS CLOUDY 56 52 86 SE10 30.00S PITTSFIELD CLOUDY 53 51 93 CALM 30.00S $$ RIZALL-250800- RHODE ISLAND CITY SKY/WX TMP DP RH WIND PRES REMARKS PROVIDENCE CLOUDY 58 58 100 N12 29.98S NEWPORT CLOUDY 59 59 100 N9 29.96S BLOCK ISLAND CLOUDY 61 55 82 NE12G23 29.98R WESTERLY CLOUDY 61 57 87 N7 29.98R $$ CTZALL-250800- CONNECTICUT CITY SKY/WX TMP DP RH WIND PRES REMARKS BRADLEY INTL CLOUDY 58 54 86 N9 30.01R HARTFORD CLOUDY 59 55 87 N7 30.00R BRIDGEPORT LGT RAIN 62 55 77 NE8 29.99S DANBURY CLOUDY 58 55 90 E3 30.02R GROTON CLOUDY 60 56 86 N8 29.98R NEW HAVEN CLOUDY 61 55 81 NE6 30.00R CHESTER CLOUDY 59 55 88 NE3 30.00R MERIDEN CLOUDY 59 55 87 N3 30.00R WILLIMANTIC CLOUDY 60 55 83 NE10 30.00R OXFORD CLOUDY 57 52 82 CALM 30.02R $$ MEZ002-015-021-024-NHZ003-005-008-011-012-014-VTZ005-008-250800- NORTHERN NEW ENGLAND CITY SKY/WX TMP DP RH WIND PRES REMARKS PORTLAND ME CLOUDY 56 53 90 VRB6 30.01F BANGOR ME CLOUDY 56 53 90 N8 30.03S CONCORD NH CLOUDY 56 53 90 N3 30.01F MANCHESTER NH CLOUDY 57 52 83 N6 30.00S NASHUA NH CLOUDY 56 55 97 N5 30.01F PORTSMOUTH NH CLOUDY 56 53 91 N6 29.98F JAFFREY NH CLOUDY 54 54 100 VRB3 30.02S FOG KEENE NH CLOUDY 56 53 90 CALM 30.02R BURLINGTON VT CLOUDY 57 55 93 E3 30.01R MT. WASHINGTON DRZL/FOG 37 37 100 CALM N/A VSB 1/16 $$ NYZ052-076-250800- EASTERN NEW YORK CITY SKY/WX TMP DP RH WIND PRES REMARKS ALBANY CLOUDY 59 55 87 S6 29.99R NEW YORK CITY CLOUDY 63 60 90 NE12 29.98R $$ ANZALL-250800- MARINE OBSERVATIONS STATION/POSITION TIME TEMP WIND PRES VSBY WAVE AIR SEA DIR/SP/G HT/PER (UTC) (F) (DEG/KT/KT) (MB) (MI) (FT/S) BOSTON BUOY 0650 58 63 20/ 17/ 21 1014.4F 9/ 8 BUZZARDS BAY 0600 60 10/ 22/ 24 1014.1F NANTUCKET SOUND 0650 70 1012.9R 3/ 4 MASS BAY-STELLWA 0604 58 59 30/ 19/ 23 1014.1R 9/ 8 ISLE OF SHOALS 0600 58 20/ 18/ 20 1015.3R S OF BLOCK IS 0655 71 N/A 5/ 5 $$ ......................KEY......................... SKY/WX - SKY CONDITION/PRESENT WEATHER TMP - TEMPERATURE IN FAHRENHEIT DWPT - DEWPOINT IN FAHRENHEIT RH - RELATIVE HUMIDITY IN PERCENT WIND - DIRECTION AND SPEED IN MPH PRES - MEAN SEA LEVEL PRESSURE IN INCHES OF HG WCI - WIND CHILL INDEX VSB - VISIBILITY IN MILES HX - HEAT INDEX TC - TEMPERATURE IN CELSIUS VRB - VARIABLE WIND DIRECTION N/A - NOT AVAILABLE

USA.gov is the U.S. government's official web portal to all federal, state and local government web resources and services.